Casablanca, Morocco

3:27 PM WEST on September 19, 2017 (GMT +0100)
Casablanca

Weather History for GMMC - January, 2014

Change the Weather History Date:

Thursday, January 30, 2014

  Actual Average (GMMN) Record (GMMN)
Temperature  
Mean Temperature 56 °F -  
Max Temperature 60 °F 64 °F 80 °F (2013)
Min Temperature 51 °F 43 °F 28 °F (2005)
Degree Days  
Heating Degree Days 10    
Growing Degree Days 6 (Base 50)    
Moisture  
Dew Point 46 °F    
Average Humidity 66    
Maximum Humidity 82    
Minimum Humidity 43    
Precipitation  
Precipitation 0.04 in 0.08 in - ()
Sea Level Pressure  
Sea Level Pressure 29.98 in    
Wind  
Wind Speed 8 mph ()    
Max Wind Speed 12 mph    
Max Gust Speed -    
Visibility 6.1 miles    
Events Rain    
Averages and records for this station are not official NWS values.
T = Trace of Precipitation, MM = Missing Value Source: Averaged Metar Reports

Daily Weather History Graph

Daily Weather History Graph

Search for Another Location

Airport or City:

Trip Planner

Search our weather history database for the weather conditions in past years. The results will help you decide how hot, cold, wet, or windy it might be!

Date:

Astronomy

Jan. 30, 2014 Rise Set
Actual Time 7:28 AM WET 5:59 PM WET
Civil Twilight 7:02 AM WET 6:26 PM WET
Nautical Twilight 6:32 AM WET 6:55 PM WET
Astronomical Twilight 6:02 AM WET 7:25 PM WET
Moon 6:45 AM WET (1/30) 5:52 PM WET (1/30)
Length of Visible Light 11h 23m
Length of Day
10h 31m
Waning Crescent, 0% of the Moon is Illuminated
Jan 30
Waning Crescent
Jan 30
New
Feb 6
First Quarter
Feb 14
Full
Feb 22
Last Quarter

Hourly Weather History & Observations

Time (WET) Temp. Dew Point Humidity Pressure Visibility Wind Dir Wind Speed Gust Speed Precip Events Conditions
12:00 AM 54 °F 48 °F 74% 29.88 in 6 mi North 8.1 mph - - Rain Light Rain Showers
12:00 AM 53.6 °F 48.2 °F 82% 29.86 in 6.2 mi North 8.1 mph - N/A   Scattered Clouds
1:00 AM 55.4 °F 48.2 °F 77% 29.86 in 6.2 mi North 9.2 mph - N/A   Mostly Cloudy
2:00 AM 55.4 °F 48.2 °F 77% 29.86 in 6.2 mi North 9.2 mph - N/A   Mostly Cloudy
3:00 AM 56 °F 48 °F 66% 29.88 in 6 mi North 9.2 mph - -   Mostly Cloudy
3:00 AM 55.4 °F 48.2 °F 77% 29.86 in 6.2 mi North 9.2 mph - N/A   Mostly Cloudy
4:00 AM 55.4 °F 48.2 °F 77% 29.86 in 6.2 mi North 9.2 mph - N/A   Mostly Cloudy
5:00 AM 55.4 °F 48.2 °F 77% 29.86 in 6.2 mi North 9.2 mph - N/A   Mostly Cloudy
6:00 AM 55 °F 44 °F 57% 29.92 in 5 mi NNW 6.9 mph - - Rain Light Rain
6:00 AM 55.4 °F 44.6 °F 67% 29.89 in 5.0 mi NNW 6.9 mph - N/A   Scattered Clouds
7:00 AM 51.8 °F 42.8 °F 71% 29.92 in 5.0 mi NNW 5.8 mph - N/A   Mostly Cloudy
9:00 AM 57 °F 44 °F 51% 29.99 in 6 mi NNE 11.5 mph - -   Mostly Cloudy
9:00 AM 57.2 °F 44.6 °F 63% 29.98 in 6.2 mi NNE 11.5 mph - N/A   Scattered Clouds
10:00 AM 57.2 °F 44.6 °F 63% 30.01 in 6.2 mi NNE 6.9 mph - N/A   Scattered Clouds
11:00 AM 59.0 °F 42.8 °F 55% 30.01 in 6.2 mi NNE 9.2 mph - N/A   Scattered Clouds
12:00 PM 59 °F 44 °F 46% 30.03 in 6 mi North 11.5 mph - -   Partly Cloudy
12:00 PM 59.0 °F 44.6 °F 59% 30.01 in 6.2 mi North 11.5 mph - N/A   Scattered Clouds
1:00 PM 59.0 °F 42.8 °F 55% 30.01 in 6.2 mi North 9.2 mph - N/A   Scattered Clouds
2:00 PM 59.0 °F 42.8 °F 55% 30.01 in 6.2 mi NNW 11.5 mph - N/A   Partly Cloudy
3:00 PM 59 °F 42 °F 43% 30.02 in 6 mi NNW 11.5 mph - -   Partly Cloudy
3:00 PM 59.0 °F 42.8 °F 55% 30.01 in 6.2 mi NNW 11.5 mph - N/A   Partly Cloudy
4:00 PM 59.0 °F 44.6 °F 59% 30.01 in 6.2 mi NNW 11.5 mph - N/A   Partly Cloudy
6:00 PM 57 °F 48 °F 64% 30.06 in 9 mi WNW 6.9 mph - -   Partly Cloudy
6:00 PM 57.2 °F 48.2 °F 72% 30.06 in 6.2 mi WNW 9.2 mph - N/A   Partly Cloudy
7:00 PM 57.2 °F 46.4 °F 67% 30.06 in 6.2 mi NW 4.6 mph - N/A   Partly Cloudy
8:00 PM 55.4 °F 50.0 °F 82% 30.06 in 6.2 mi NW 4.6 mph - N/A   Scattered Clouds
9:00 PM 55 °F 48 °F 71% 30.12 in 6 mi WNW 2.3 mph - -   Partly Cloudy
9:00 PM 55.4 °F 48.2 °F 77% 30.09 in 6.2 mi WNW 2.3 mph - N/A   Scattered Clouds
10:00 PM 55.4 °F 46.4 °F 72% 30.12 in 6.2 mi West 4.6 mph - N/A   Scattered Clouds
11:00 PM 55.4 °F 48.2 °F 77% 30.12 in 6.2 mi WSW 4.6 mph - N/A   Partly Cloudy